Location: Unspecified
(0.0000°N, 0.0000°E)
Time: 06:30:35
(UTC+00:00)

UNAMSat - Pass Details

Date: 17 May 2026
Orbit: 964 x 1006 km, 82.9° (Epoch: 10 June)

Event Time Altitude Azimuth Distance (km) Brightness Sun altitude
Rises 02:17:18 0° 18° (NNE) 3,718 11.6 -50.4°
Reaches altitude 10° 02:20:11 10° 29° (NNE) 2,771 10.9 -49.8°
Enters shadow 02:20:12 10° 29° (NNE) 2,769 10.9 -49.8°
